Location: Sobotiste
(48.7170°N, 17.4000°E)
Time: 00:18:34
(UTC+01:00)

SEEDS - Visible Passes

Search period start: 13 March 2026 00:00
Search period end: 23 March 2026 00:00
Orbit: 477 x 479 km, 97.8° (Epoch: 12 March)

Date Brightness Start Highest point End Pass type
(mag) Time Alt. Az. Time Alt. Az. Time Alt. Az.
13 Mar ? 04:35:08 10° NE 04:38:07 24° E 04:41:04 10° SSE visible
14 Mar ? 04:09:49 10° ENE 04:11:31 13° E 04:13:11 10° ESE visible
15 Mar ? 05:15:07 10° NNE 05:18:42 74° ESE 05:22:14 10° S visible
16 Mar ? 04:48:52 10° NNE 04:52:10 34° E 04:55:26 10° SSE visible
17 Mar ? 04:23:00 10° NE 04:25:29 18° E 04:27:57 10° SE visible
19 Mar ? 05:02:19 10° NNE 05:05:48 49° E 05:09:15 10° S visible
20 Mar ? 04:36:06 10° NE 04:39:03 24° E 04:41:59 10° SSE visible
21 Mar ? 04:10:34 10° ENE 04:12:09 12° E 04:13:43 10° ESE visible
22 Mar ? 05:15:29 10° NNE 05:19:03 71° ESE 05:22:35 10° S visible
